Volver al catálogo

FENGYUN 1C DEB

ActivoSSO
NORAD 31248·DEBRIS·🇨🇳 China

Lanzado May 10, 1999 desde Taiyuan Satellite Launch Center

Loading…

Próximos Pases (próximas 24 horas)

TLE

ActualizadoSource: Space-Track

Época: Sep 14, 2026, 15:47 UTC

1 31248U 99025BME 26257.65781655  .00000392  00000-0  32011-3 0  9992
2 31248  99.2355 319.8669 0109114 283.4871 231.4962 13.93154911986652

Sigue FENGYUN 1C DEB en tiempo real con AllMySat

Download on the App Store